Location: Coed Ely
(51.5661°N, 3.4150°W)
Time: 01:09:10
(UTC+00:00)

Okean O Rocket - Pass Details

Date: 28 January 2021
Orbit: 622 x 645 km, 98.2° (Epoch: 28 February)

Event Time Altitude Azimuth Distance (km) Brightness Sun altitude
Rises 17:50:07 0° 170° (S) 2,936 5.1 -8.5°
Reaches altitude 10° 17:52:20 10° 172° (S) 2,029 4.3 -8.8°
Maximum altitude 17:56:45 70° 257° (WSW) 680 2.0 -9.5°
Drops below altitude 10° 18:01:10 10° 341° (NNW) 2,031 4.2 -10.2°
Sets 18:03:23 0° 344° (NNW) 2,940 5.0 -10.5°
